TimeEST,TemperatureF,Dew PointF,Humidity,Sea Level PressureIn,VisibilityMPH,Wind Direction,Wind SpeedMPH,Gust SpeedMPH,PrecipitationIn,Events,Conditions,WindDirDegrees,DateUTC
12:56 AM,10.0,5.0,80,30.51,10.0,ENE,4.6,-,N/A,,Clear,70,2014-03-06 05:56:00
1:56 AM,10.9,5.0,77,30.51,10.0,East,6.9,-,N/A,,Clear,80,2014-03-06 06:56:00
2:56 AM,10.9,6.1,81,30.51,10.0,East,5.8,-,N/A,,Clear,80,2014-03-06 07:56:00
3:56 AM,8.1,5.0,87,30.49,10.0,ENE,4.6,-,N/A,,Clear,60,2014-03-06 08:56:00
4:56 AM,7.0,3.9,87,30.48,10.0,ENE,4.6,-,N/A,,Clear,60,2014-03-06 09:56:00
5:56 AM,6.1,3.0,87,30.48,9.0,ENE,4.6,-,N/A,,Clear,60,2014-03-06 10:56:00
6:56 AM,6.1,3.0,87,30.47,8.0,East,5.8,-,N/A,,Clear,80,2014-03-06 11:56:00
7:56 AM,8.1,3.9,83,30.46,7.0,East,3.5,-,N/A,,Clear,80,2014-03-06 12:56:00
8:56 AM,14.0,3.9,64,30.44,10.0,ESE,16.1,23.0,N/A,,Clear,110,2014-03-06 13:56:00
9:56 AM,16.0,5.0,62,30.41,10.0,East,11.5,-,N/A,,Clear,100,2014-03-06 14:56:00
10:56 AM,19.0,6.1,57,30.40,10.0,ESE,11.5,-,N/A,,Clear,110,2014-03-06 15:56:00
11:56 AM,21.9,7.0,53,30.40,10.0,SE,11.5,-,N/A,,Clear,140,2014-03-06 16:56:00
12:56 PM,25.0,8.1,49,30.37,10.0,ESE,9.2,-,N/A,,Clear,110,2014-03-06 17:56:00
1:56 PM,28.9,9.0,43,30.32,10.0,NE,4.6,-,N/A,,Clear,50,2014-03-06 18:56:00
2:56 PM,28.0,10.0,47,30.31,10.0,ESE,10.4,-,N/A,,Clear,120,2014-03-06 19:56:00
3:56 PM,28.9,10.9,47,30.29,10.0,East,11.5,-,N/A,,Clear,100,2014-03-06 20:56:00
4:56 PM,28.9,10.9,47,30.27,10.0,SE,8.1,-,N/A,,Clear,130,2014-03-06 21:56:00
5:56 PM,27.0,10.9,51,30.26,10.0,ESE,9.2,-,N/A,,Clear,120,2014-03-06 22:56:00
6:56 PM,24.1,10.0,55,30.25,10.0,SE,9.2,-,N/A,,Clear,130,2014-03-06 23:56:00
7:56 PM,21.0,10.0,63,30.23,10.0,SSE,9.2,-,N/A,,Clear,150,2014-03-07 00:56:00
8:56 PM,19.0,9.0,65,30.23,10.0,SE,8.1,-,N/A,,Clear,130,2014-03-07 01:56:00
9:56 PM,18.0,9.0,68,30.24,10.0,SE,4.6,-,N/A,,Clear,140,2014-03-07 02:56:00
10:56 PM,16.0,9.0,74,30.22,10.0,SSE,4.6,-,N/A,,Clear,160,2014-03-07 03:56:00
11:56 PM,17.1,9.0,71,30.17,10.0,SSE,4.6,-,N/A,,Clear,150,2014-03-07 04:56:00